TimeCDT,TemperatureF,Dew PointF,Humidity,Sea Level PressureIn,VisibilityMPH,Wind Direction,Wind SpeedMPH,Gust SpeedMPH,PrecipitationIn,Events,Conditions,WindDirDegrees,DateUTC
12:53 AM,27.0,21.0,78,30.19,10.0,NW,6.9,-,N/A,,Clear,320,2013-11-02 05:53:00
1:53 AM,25.0,19.9,81,30.22,10.0,West,5.8,-,N/A,,Clear,270,2013-11-02 06:53:00
2:53 AM,26.1,21.9,84,30.22,10.0,West,6.9,-,N/A,,Clear,260,2013-11-02 07:53:00
3:53 AM,23.0,19.0,85,30.23,10.0,WNW,6.9,-,N/A,,Clear,290,2013-11-02 08:53:00
4:53 AM,23.0,19.0,85,30.25,10.0,NW,5.8,-,N/A,,Clear,310,2013-11-02 09:53:00
5:53 AM,24.1,19.9,84,30.26,10.0,NW,8.1,-,N/A,,Clear,320,2013-11-02 10:53:00
6:53 AM,21.9,19.0,89,30.27,10.0,NW,5.8,-,N/A,,Clear,310,2013-11-02 11:53:00
7:53 AM,21.9,18.0,85,30.27,10.0,WNW,3.5,-,N/A,,Clear,300,2013-11-02 12:53:00
8:53 AM,24.1,19.9,84,30.30,10.0,NW,3.5,-,N/A,,Clear,310,2013-11-02 13:53:00
9:53 AM,32.0,26.1,79,30.30,10.0,Calm,Calm,-,N/A,,Clear,0,2013-11-02 14:53:00
10:53 AM,39.9,30.0,68,30.28,10.0,West,4.6,-,N/A,,Clear,280,2013-11-02 15:53:00
11:53 AM,48.0,30.0,50,30.24,10.0,Calm,Calm,-,N/A,,Clear,0,2013-11-02 16:53:00
12:53 PM,55.0,27.0,34,30.21,10.0,Variable,3.5,-,N/A,,Clear,0,2013-11-02 17:53:00
1:53 PM,57.9,24.1,27,30.17,10.0,South,9.2,18.4,N/A,,Clear,190,2013-11-02 18:53:00
2:53 PM,57.9,24.1,27,30.12,10.0,South,10.4,-,N/A,,Clear,180,2013-11-02 19:53:00
3:53 PM,59.0,26.1,28,30.07,10.0,South,11.5,20.7,N/A,,Clear,180,2013-11-02 20:53:00
4:53 PM,59.0,27.0,29,30.05,10.0,South,15.0,20.7,N/A,,Clear,170,2013-11-02 21:53:00
5:53 PM,57.0,28.0,33,30.03,10.0,South,10.4,-,N/A,,Clear,170,2013-11-02 22:53:00
6:53 PM,48.9,28.0,44,30.01,10.0,SE,5.8,-,N/A,,Clear,140,2013-11-02 23:53:00
7:53 PM,46.9,27.0,46,30.00,10.0,SE,9.2,-,N/A,,Clear,130,2013-11-03 00:53:00
8:53 PM,48.0,27.0,44,29.97,10.0,SE,10.4,-,N/A,,Clear,140,2013-11-03 01:53:00
9:53 PM,48.0,27.0,44,29.95,10.0,SSE,11.5,-,N/A,,Clear,160,2013-11-03 02:53:00
10:53 PM,48.0,27.0,44,29.91,10.0,SSE,16.1,21.9,N/A,,Clear,160,2013-11-03 03:53:00
11:53 PM,46.0,28.0,50,29.88,10.0,SSE,12.7,23.0,N/A,,Clear,150,2013-11-03 04:53:00